User: anonymous   Login
Location: Fort Wayne
(41.1310°N, 85.1290°W)
Time: 06:18:50
(UTC-05:00)
Language:

OPAL - Orbit

View from above orbital plane
View from above orbital plane
View from above satellite
View from above satellite

Ground track
Ground track

The orbit data is extracted from the following two-line orbital elements,

1 26063U 00004C   17327.07560602 -.00000005  00000-0  18418-4 0  9999
2 26063 100.2198   0.2414 0036095 220.0681 139.7836 14.36681852934190
Epoch (UTC): 23 November 2017 01:48:52
Eccentricity: 0.0036095
inclination: 100.2198°
perigee height: 743 km
apogee height: 795 km
right ascension of ascending node: 0.2414°
argument of perigee: 220.0681°
revolutions per day: 14.36681852
mean anomaly at epoch: 139.7836°
orbit number at epoch: 93419

The dashed part of the orbit path shows where the satellite is in the earth's shadow,  

DLR